Погода в Нижнеангарске

Погода в Нижнеангарске : погода сейчас, прогноз погоды и архив. Всё, что Вы хотите узнать о погоде в Нижнеангарске!

Поиск расширенной информации на нашем сайте:

Другие новости

Новости СМИ2

Главная страница сайта

Новости сайта

03.07.2017

Напоминаем, что на нашем специализированном сайте Метеоцентр.Азия вы можете получить высокодетализированные автоматические прогнозы погоды по пунктам России, СНГ и мира в авиационном формате (включающие направление и скорость ветра, видимость, явления погоды, количество и форму облачности, нижнюю и верхнюю границу облачности).


Погода в Нижнеангарске - сегодня

Время (UTC), дата Ветер
(°,м/с) 
Видим.   Явления Облачность Т
(°С)
Тd
(°С)
f(%) Тe
(°С)
Pmin
(гПа)
dP
(гПа)
Po
(мм)
O2
(г/м3)
Тmin Tmax R s Состояние
почвы
00 17.05.18 350 (С) 20000 м  слаб. ливневой дождь  10/6 1000 м кучево-дожд., средняя 
[Cb cap|Ac As]
+4.2 -0.2 73 +5  1011  2.5  715  284  +1.5    0.1    влажная 
03 17.05.18 210 (ЮЗ) 20000 м  {ливн. осадки}  5/5 1000 м кучево-дожд. 
[Cb cap]
+8.4 +1.4 61 +7  1011.7  1.5  716  280           
06 17.05.18 210 (ЮЗ) 20000 м  {ливн. осадки}  3/3 1000 м 
[Sc]
+10.5 +0.1 48 +10  1011  -0.3  716  278           
09 17.05.18 200 (Ю) 20000 м    4/0 верхняя 
[Ci fib]
+9.7 -1.7 45 +10  1010.4  -0.7  716  279           
15 17.05.18 320 (СЗ) н/о    6/0 верхняя 
[Ci fib]
+5.1 -3.1 55 +5  1009.7  -0.5  714  283           
18 17.05.18 320 (СЗ) н/о    3/0 верхняя 
[Ci fib]
+4.8 -3.8 54 +4  1009.1  -0.6  714  283           
21 17.05.18 330 (СЗ) 20000 м    8/0 верхняя 
[Ci fib]
+3.5 -3.5 60 +4  1007.2  -2.1  712  284           
00 18.05.18 050 (СВ) 20000 м    10/1 1000 м верхняя 
[Sc|Cs]
+10.7 -3.2 38 +9  1003.3  -2.2  711  276  +1.9        сухая 
03 18.05.18 060 (СВ) 20000 м    3/0 верхняя 
[Ci fib]
+15.6 -2.7 28 +16  999.9  -2.3  709  270           
06 18.05.18 190 (Ю) 20000 м    10/0 средняя, верхняя 
[Ac trans|Ci fib]
+14.2 -1.1 35 +15  999.9  -0.3  709  272           
09 18.05.18 030 (СВ) 3{14}  20000 м    10/4 1000 м средняя, верхняя 
[Sc|Ac trans|Ci sp]
+15.1 -1.3 32 +15  1002.4  2.6  711  271           
12 18.05.18 300 (СЗ) 5-12{15}  20000 м    9/6 1000 м средняя 
[Sc|Ac trans]
+11.1 -2.8 38 +10  1006.2  2.8  713  276    +18.4       
18 18.05.18 300 (СЗ) 1{10}  н/о    9/3 1000 м средняя 
[Sc|Ac trans]
+3.7 -4.8 54 +5  1010.7  715  285           
21 18.05.18 350 (С) 20000 м    10/0 средняя, верхняя 
[Ac trans|Ci fib]
+3.1 -4.5 57 +4  1011.3  0.5  715  285           
00 19.05.18 тихо ()   20000 м    10/3 1000 м средняя, верхняя 
[Sc|Ac trans|Ci sp]
+7.9 -4.4 41 +8  1011.3  0.8  716  281  +3.1        сухая 
03 19.05.18 260 (З) 20000 м    10/6 1000 м средняя, верхняя 
[Sc|Ac trans|Ci fib]
+9.8 -4.7 36 +9  1011.5  0.6  716  279           
06 19.05.18 230 (ЮЗ) 4{13}  20000 м    6/6 1000 м 
[Cu hum]
+11.7 -7.1 26 +11  1011.8  0.7  717  278           
09 19.05.18 190 (Ю) 20000 м    1/1 1000 м 
[Cu hum]
+10.2 -5.3 33 +9  1013  0.8  718  279           
12 19.05.18 330 (СЗ) 20000 м    ясно 
+7.2 -5.9 39 +8  1014.1  0.5  718  282    +12.6       
15 19.05.18 350 (С) н/о    1/0 верхняя 
[Ci fib]
+3.5 -6.8 47 +4  1014.8  -0.1  718  286           
18 19.05.18 040 (СВ) н/о    ясно 
+6.2 -9.1 32 +5  1013.7  -0.5  717  283           
21 19.05.18 020 (С) 20000 м    8/0 верхняя 
[Ci fib]
+4 -8.7 39 +5  1012.8  -1.3  716  285           
00 20.05.18 040 (СВ) 6-11{11}  20000 м    10/0 средняя, верхняя 
[Ac trans|Ci sp]
+9.6 -8.9 26 +8  1010.8  -0.8  716  279  +2.3        сухая 
06 20.05.18 080 (В) 2{10}  20000 м    10/6 1000 м кучево-дожд., средняя 
[Cb cap|Ac As]
+11.3 -4.8 32 +12  1009.9  0.6  716  277           
09 20.05.18 030 (СВ) 10 км  слаб. ливневой дождь  10/10 1000 м кучево-дожд. 
[Cb cap]
+5.7 +5.2 97 +7  1012.9  1.8  717  282           
Время (UTC), дата Ветер
(°,м/с) 
Видим.   Явления Облачность Т
(°С)
Тd
(°С)
f(%) Тe
(°С)
Pmin
(гПа)
dP
(гПа)
Po
(мм)
O2
(г/м3)
Тmin Tmax R s Состояние
почвы

Для получения пояснительной информации подведите курсор к названию столбца.

ПОГОДА в Нижнеангарске - архив

Всё, что Вы хотите узнать о погоде в Нижнеангарске - удобно и подробно!

Выберите нужную дату (начиная с 1 января 2015* года) и нажмите кнопку "Найти".
Будут отображены архивные сводки погоды по пункту Нижнеангарск, начиная с указанной даты.


Отображать данные в формате CSV (для использования в таблицах Excel)


Внимание! Наш архив погоды предназначен исключительно для личного некоммерческого использования в познавательных целях. Если Вам необходимы официальные справки о состоянии погоды (для производственных, юридических, коммерческих и т.п. целей), обращайтесь в органы Росгидромета.

*Примечание: данная дата относится к архиву по метеостанциям СССР (Россия, СНГ, Балтия).
Архив по метеостанциям Зарубежной Европы и Азии (кроме Китая) хранится 10 дней, по другим регионам земного шара (Китай, Африка, Америка, Австралия, Океания) - 1 день.

Нижнеангарск - район местоположения метеостанции


Название, широта, долгота, высота метеостанции:
Нижнеангарск 55.8°ш. 109.6°д. 487 м над ур. моря [Российская Федерация]

Дополнительная информация

В oтличие oт бoльшинства пoгoдных сайтoв мы публикуем пoдрoбную метеoинфoрмацию в детальнoм прoфессиoнальнoм фoрмате.

Характеристики температуры и влажнoсти вoздуха измеряются на высoте 2 м в тени вдали oт зданий и деревьев.
Скoрoсть ветра измеряется на высoте 10 м (на урoвне рoста челoвека скoрoсть ветра ниже в 1.5-2 раза). Если метеoстанция нахoдится в гoрoде или в лесу, тo скoрoсть ветра занижена на 2-4 м/с пo сравнению с oткрытым местoм. Скoрoсть ветра над акватoриями крупных рек и oзёр, а также на вершинах хoлмoв на 2-5 м/с выше, чем в oбычных услoвиях.
Атмoсфернoе давление в разных тoчках местнoсти мoжет значительнo oтличаться oт давления на метеoстанции, в зависимoсти oт услoвий рельефа (при пoдъёме на 10 м давление пoнижается примернo на 1 мм рт.ст.).